Location: Rounton
(54.4000°N, 1.3500°W)
Time: 13:47:53
(UTC+00:00)

Transit 2A Rocket - Pass Details

Date: 30 November 2021
Orbit: 584 x 918 km, 66.7° (Epoch: 21 January)

Event Time Altitude Azimuth Distance (km) Brightness Sun altitude
Rises 16:06:27 0° 317° (NW) 3,562 8.6 -3.2°
Reaches altitude 10° 16:09:01 10° 319° (NW) 2,622 7.9 -3.5°
Maximum altitude 16:15:11 73° 44° (NE) 953 5.4 -4.3°
Drops below altitude 10° 16:21:07 10° 130° (SE) 2,528 7.5 -5.0°
Sets 16:23:33 0° 132° (SE) 3,425 8.2 -5.3°
